Time,TemperatureF,DewpointF,PressureIn,WindDirection,WindDirectionDegrees,WindSpeedMPH,WindSpeedGustMPH,Humidity,HourlyPrecipIn,Conditions,Clouds,dailyrainin,SoftwareType,DateUTC
2013-07-19 00:01:00,72.9,72.0,30.10,SSE,160,0.0,0.0,97,0.00,,,0.13,meteohub,2013-07-19 04:01:00,
2013-07-19 00:06:00,72.9,72.0,30.10,SSE,160,0.0,0.0,97,0.00,,,0.13,meteohub,2013-07-19 04:06:00,
2013-07-19 00:11:00,72.9,72.0,30.10,SSE,160,0.0,0.0,97,0.00,,,0.13,meteohub,2013-07-19 04:11:00,
2013-07-19 00:16:00,72.9,72.0,30.10,SSE,160,0.0,0.0,97,0.00,,,0.13,meteohub,2013-07-19 04:16:00,
2013-07-19 00:21:00,72.9,72.0,30.10,SSE,160,0.0,0.0,97,0.00,,,0.13,meteohub,2013-07-19 04:21:00,
2013-07-19 00:26:00,72.7,71.8,30.10,SSE,160,0.0,0.0,97,0.00,,,0.13,meteohub,2013-07-19 04:26:00,
2013-07-19 00:31:00,72.7,72.1,30.10,SSE,160,0.0,0.0,98,0.00,,,0.13,meteohub,2013-07-19 04:31:00,
2013-07-19 00:37:00,72.7,72.1,30.10,SSE,160,0.0,0.0,98,0.00,,,0.13,meteohub,2013-07-19 04:37:00,
2013-07-19 00:42:00,72.7,72.1,30.10,SSE,160,0.0,0.0,98,0.00,,,0.13,meteohub,2013-07-19 04:42:00,
2013-07-19 00:47:00,72.7,72.1,30.10,SSE,160,0.0,0.0,98,0.00,,,0.13,meteohub,2013-07-19 04:47:00,
2013-07-19 00:52:00,72.5,72.0,30.10,SSE,160,0.0,0.0,98,0.00,,,0.13,meteohub,2013-07-19 04:52:00,
2013-07-19 00:57:00,72.5,72.0,30.10,SSE,160,0.0,0.0,98,0.00,,,0.13,meteohub,2013-07-19 04:57:00,
2013-07-19 01:02:00,72.7,72.1,30.10,SSE,160,0.0,0.0,98,0.00,,,0.13,meteohub,2013-07-19 05:02:00,
2013-07-19 01:07:00,72.7,72.1,30.10,SSE,160,0.0,0.0,98,0.00,,,0.13,meteohub,2013-07-19 05:07:00,
2013-07-19 01:12:00,72.7,72.1,30.10,SSE,160,0.0,0.0,98,0.00,,,0.13,meteohub,2013-07-19 05:12:00,
2013-07-19 01:17:00,72.7,72.1,30.10,SSE,160,0.0,0.0,98,0.00,,,0.13,meteohub,2013-07-19 05:17:00,
2013-07-19 01:22:00,72.9,72.3,30.10,SSE,160,0.0,0.0,98,0.00,,,0.13,meteohub,2013-07-19 05:22:00,
2013-07-19 01:27:00,72.9,72.3,30.10,SSE,160,0.0,0.0,98,0.00,,,0.13,meteohub,2013-07-19 05:27:00,
2013-07-19 01:32:00,73.0,72.5,30.10,SSE,160,0.0,0.0,98,0.00,,,0.13,meteohub,2013-07-19 05:32:00,
2013-07-19 01:37:00,73.0,72.5,30.10,SSE,160,0.0,0.0,98,0.00,,,0.13,meteohub,2013-07-19 05:37:00,
2013-07-19 01:42:00,73.0,72.5,30.10,SSE,160,0.0,0.0,98,0.00,,,0.13,meteohub,2013-07-19 05:42:00,
2013-07-19 01:47:00,73.2,72.7,30.10,SSE,160,0.0,0.0,98,0.00,,,0.13,meteohub,2013-07-19 05:47:00,
2013-07-19 01:52:00,73.2,72.7,30.10,SSE,160,0.0,0.0,98,0.00,,,0.13,meteohub,2013-07-19 05:52:00,
2013-07-19 01:57:00,73.2,72.7,30.10,SSE,160,0.0,0.0,98,0.00,,,0.13,meteohub,2013-07-19 05:57:00,
2013-07-19 02:02:00,73.2,72.7,30.10,SSE,160,0.0,0.0,98,0.00,,,0.13,meteohub,2013-07-19 06:02:00,
2013-07-19 02:07:00,73.4,72.9,30.10,SSE,160,0.0,0.0,98,0.00,,,0.13,meteohub,2013-07-19 06:07:00,
2013-07-19 02:12:00,73.6,73.0,30.10,SSE,160,0.0,0.0,98,0.00,,,0.13,meteohub,2013-07-19 06:12:00,
2013-07-19 02:17:00,73.6,73.0,30.10,SSE,160,0.0,0.0,98,0.00,,,0.13,meteohub,2013-07-19 06:17:00,
2013-07-19 02:22:00,73.6,73.0,30.09,SSE,160,0.0,0.0,98,0.00,,,0.13,meteohub,2013-07-19 06:22:00,
2013-07-19 02:27:00,73.6,73.0,30.10,SSE,160,0.0,0.0,98,0.00,,,0.13,meteohub,2013-07-19 06:27:00,
2013-07-19 02:32:00,73.6,73.0,30.10,SSE,160,0.0,0.0,98,0.00,,,0.13,meteohub,2013-07-19 06:32:00,
2013-07-19 02:37:00,73.8,73.2,30.10,SSE,160,0.0,0.0,98,0.00,,,0.13,meteohub,2013-07-19 06:37:00,
2013-07-19 02:42:00,73.8,73.2,30.10,SSE,160,0.0,0.0,98,0.00,,,0.13,meteohub,2013-07-19 06:42:00,
2013-07-19 02:47:00,73.8,73.2,30.10,SSE,160,0.0,0.0,98,0.00,,,0.13,meteohub,2013-07-19 06:47:00,
2013-07-19 02:52:00,73.8,73.2,30.10,SSE,160,0.0,0.0,98,0.00,,,0.13,meteohub,2013-07-19 06:52:00,
2013-07-19 02:57:00,73.8,73.2,30.10,SSE,160,0.0,0.0,98,0.00,,,0.13,meteohub,2013-07-19 06:57:00,
2013-07-19 03:02:00,73.8,73.2,30.09,SSE,160,0.0,0.0,98,0.00,,,0.13,meteohub,2013-07-19 07:02:00,
2013-07-19 03:07:00,73.8,73.2,30.09,SSE,160,0.0,0.0,98,0.00,,,0.13,meteohub,2013-07-19 07:07:00,
2013-07-19 03:12:00,73.8,73.2,30.09,SSE,160,0.0,0.0,98,0.00,,,0.13,meteohub,2013-07-19 07:12:00,
2013-07-19 03:17:00,73.8,73.2,30.09,SSE,160,0.0,0.0,98,0.00,,,0.13,meteohub,2013-07-19 07:17:00,
2013-07-19 03:22:00,73.8,73.2,30.09,SSE,160,0.0,0.0,98,0.00,,,0.13,meteohub,2013-07-19 07:22:00,
2013-07-19 03:27:00,73.8,73.2,30.09,SSE,160,0.0,0.0,98,0.00,,,0.13,meteohub,2013-07-19 07:27:00,
2013-07-19 03:32:00,73.8,73.2,30.09,SSE,160,0.0,0.0,98,0.00,,,0.13,meteohub,2013-07-19 07:32:00,
2013-07-19 03:37:00,73.6,73.0,30.09,SSE,160,0.0,0.0,98,0.00,,,0.13,meteohub,2013-07-19 07:37:00,
2013-07-19 03:42:00,73.6,73.0,30.09,SSE,160,0.0,0.0,98,0.00,,,0.13,meteohub,2013-07-19 07:42:00,
2013-07-19 03:47:00,73.6,73.0,30.09,SSE,160,0.0,0.0,98,0.00,,,0.13,meteohub,2013-07-19 07:47:00,
2013-07-19 03:52:00,73.8,73.2,30.09,SSE,160,0.0,0.0,98,0.00,,,0.13,meteohub,2013-07-19 07:52:00,
2013-07-19 03:57:00,73.8,73.2,30.09,SSE,160,0.0,0.0,98,0.00,,,0.13,meteohub,2013-07-19 07:57:00,
2013-07-19 04:02:00,73.8,73.2,30.09,SSE,160,0.0,0.0,98,0.00,,,0.13,meteohub,2013-07-19 08:02:00,
2013-07-19 04:07:00,73.8,73.2,30.09,SSE,160,0.0,1.0,98,0.00,,,0.13,meteohub,2013-07-19 08:07:00,
2013-07-19 04:12:00,73.8,73.2,30.09,SSE,160,0.0,1.0,98,0.00,,,0.13,meteohub,2013-07-19 08:12:00,
2013-07-19 04:17:00,73.8,73.2,30.09,SSE,160,0.0,1.0,98,0.00,,,0.13,meteohub,2013-07-19 08:17:00,
2013-07-19 04:22:00,73.8,73.2,30.09,SSE,160,0.0,0.0,98,0.00,,,0.13,meteohub,2013-07-19 08:22:00,
2013-07-19 04:27:00,73.9,73.4,30.09,SSE,160,0.0,0.0,98,0.00,,,0.13,meteohub,2013-07-19 08:27:00,
2013-07-19 04:32:00,73.8,73.2,30.09,SSE,160,0.0,0.0,98,0.00,,,0.13,meteohub,2013-07-19 08:32:00,
2013-07-19 04:37:00,73.8,73.2,30.09,SSE,160,0.0,0.0,98,0.00,,,0.13,meteohub,2013-07-19 08:37:00,
2013-07-19 04:42:00,73.8,73.2,30.09,SSE,160,0.0,0.0,98,0.00,,,0.13,meteohub,2013-07-19 08:42:00,
2013-07-19 04:47:00,73.8,73.2,30.09,SSE,160,0.0,0.0,98,0.00,,,0.13,meteohub,2013-07-19 08:47:00,
2013-07-19 04:52:00,73.8,73.2,30.09,SSE,160,0.0,0.0,98,0.00,,,0.13,meteohub,2013-07-19 08:52:00,
2013-07-19 04:57:00,73.8,73.2,30.09,SSE,160,0.0,0.0,98,0.00,,,0.13,meteohub,2013-07-19 08:57:00,
2013-07-19 05:02:00,73.8,73.2,30.09,SSE,160,0.0,0.0,98,0.00,,,0.13,meteohub,2013-07-19 09:02:00,
2013-07-19 05:07:00,73.8,73.4,30.09,SSE,160,0.0,0.0,99,0.00,,,0.13,meteohub,2013-07-19 09:07:00,
2013-07-19 05:12:00,73.8,73.4,30.09,SSE,160,0.0,0.0,99,0.00,,,0.13,meteohub,2013-07-19 09:12:00,
2013-07-19 05:17:00,73.8,73.2,30.09,SSE,160,0.0,0.0,98,0.00,,,0.13,meteohub,2013-07-19 09:17:00,
2013-07-19 05:22:00,73.8,73.2,30.09,SSE,160,0.0,0.0,98,0.00,,,0.13,meteohub,2013-07-19 09:22:00,
2013-07-19 05:27:00,73.8,73.2,30.09,SSE,160,0.0,0.0,98,0.00,,,0.13,meteohub,2013-07-19 09:27:00,
2013-07-19 05:32:00,73.8,73.2,30.09,SSE,160,0.0,0.0,98,0.00,,,0.13,meteohub,2013-07-19 09:32:00,
2013-07-19 05:37:00,73.8,73.2,30.09,SSE,160,0.0,0.0,98,0.00,,,0.13,meteohub,2013-07-19 09:37:00,
2013-07-19 05:42:00,73.6,73.0,30.09,SSE,160,0.0,0.0,98,0.00,,,0.13,meteohub,2013-07-19 09:42:00,
2013-07-19 05:47:00,73.6,73.0,30.09,SSE,160,0.0,0.0,98,0.00,,,0.13,meteohub,2013-07-19 09:47:00,
2013-07-19 05:52:00,73.6,73.0,30.09,SSE,160,0.0,0.0,98,0.00,,,0.13,meteohub,2013-07-19 09:52:00,
2013-07-19 05:57:00,73.8,73.2,30.09,SSE,160,0.0,0.0,98,0.00,,,0.13,meteohub,2013-07-19 09:57:00,
2013-07-19 06:03:00,73.6,73.0,30.09,SSE,160,0.0,0.0,98,0.00,,,0.13,meteohub,2013-07-19 10:03:00,
2013-07-19 06:08:00,73.8,73.2,30.09,SSE,160,0.0,0.0,98,0.00,,,0.13,meteohub,2013-07-19 10:08:00,
2013-07-19 06:13:00,73.8,73.2,30.09,SSE,160,0.0,0.0,98,0.00,,,0.13,meteohub,2013-07-19 10:13:00,
2013-07-19 06:18:00,73.8,73.2,30.09,SSE,160,0.0,0.0,98,0.01,,,0.14,meteohub,2013-07-19 10:18:00,
2013-07-19 06:23:00,73.8,73.2,30.09,SSE,160,0.0,0.0,98,0.01,,,0.14,meteohub,2013-07-19 10:23:00,
2013-07-19 06:28:00,73.6,73.0,30.09,SSE,160,0.0,0.0,98,0.01,,,0.14,meteohub,2013-07-19 10:28:00,
2013-07-19 06:33:00,73.6,73.0,30.09,SSE,160,0.0,0.0,98,0.01,,,0.14,meteohub,2013-07-19 10:33:00,
2013-07-19 06:38:00,73.6,73.0,30.09,SSE,160,0.0,0.0,98,0.01,,,0.14,meteohub,2013-07-19 10:38:00,
2013-07-19 06:43:00,73.6,73.0,30.09,SSE,160,0.0,0.0,98,0.01,,,0.14,meteohub,2013-07-19 10:43:00,
2013-07-19 06:48:00,73.6,73.0,30.09,SSE,160,0.0,0.0,98,0.01,,,0.14,meteohub,2013-07-19 10:48:00,
2013-07-19 06:53:00,73.6,73.0,30.10,SSE,160,0.0,0.0,98,0.01,,,0.14,meteohub,2013-07-19 10:53:00,
2013-07-19 06:58:00,73.6,73.0,30.10,SSE,160,0.0,0.0,98,0.01,,,0.14,meteohub,2013-07-19 10:58:00,
2013-07-19 07:03:00,73.9,73.6,30.10,SSE,160,0.0,1.0,99,0.01,,,0.14,meteohub,2013-07-19 11:03:00,
2013-07-19 07:08:00,74.5,74.1,30.10,East,97,0.0,3.0,99,0.01,,,0.14,meteohub,2013-07-19 11:08:00,
2013-07-19 07:13:00,75.0,74.7,30.10,SE,128,0.0,3.0,99,0.01,,,0.14,meteohub,2013-07-19 11:13:00,
2013-07-19 07:18:00,75.6,75.2,30.10,ESE,123,0.0,3.0,99,0.00,,,0.14,meteohub,2013-07-19 11:18:00,
2013-07-19 07:23:00,75.7,75.4,30.10,East,98,0.0,3.0,99,0.00,,,0.14,meteohub,2013-07-19 11:23:00,
2013-07-19 07:28:00,75.9,75.6,30.10,ESE,115,2.0,3.0,99,0.00,,,0.14,meteohub,2013-07-19 11:28:00,
2013-07-19 07:33:00,76.1,75.6,30.10,SE,126,0.0,5.0,98,0.00,,,0.14,meteohub,2013-07-19 11:33:00,
2013-07-19 07:38:00,76.3,75.7,30.11,SE,127,0.0,5.0,98,0.00,,,0.14,meteohub,2013-07-19 11:38:00,
2013-07-19 07:43:00,76.5,75.9,30.11,SSE,160,1.0,5.0,98,0.00,,,0.14,meteohub,2013-07-19 11:43:00,
2013-07-19 07:48:00,76.6,76.1,30.11,SSE,160,0.0,3.0,98,0.00,,,0.14,meteohub,2013-07-19 11:48:00,
2013-07-19 07:53:00,77.0,76.1,30.11,SE,136,0.0,3.0,97,0.00,,,0.14,meteohub,2013-07-19 11:53:00,
2013-07-19 07:58:00,77.4,76.5,30.11,SE,127,0.0,2.0,97,0.00,,,0.14,meteohub,2013-07-19 11:58:00,
2013-07-19 08:03:00,77.4,76.5,30.11,SE,140,0.0,3.0,97,0.00,,,0.14,meteohub,2013-07-19 12:03:00,
2013-07-19 08:08:00,77.5,76.3,30.11,NE,36,0.0,3.0,96,0.00,,,0.14,meteohub,2013-07-19 12:08:00,
2013-07-19 08:13:00,77.5,76.3,30.11,ESE,120,0.0,3.0,96,0.00,,,0.14,meteohub,2013-07-19 12:13:00,
2013-07-19 08:18:00,77.7,76.1,30.11,South,175,0.0,3.0,95,0.00,,,0.14,meteohub,2013-07-19 12:18:00,
2013-07-19 08:23:00,78.1,76.5,30.11,SE,128,0.0,3.0,95,0.00,,,0.14,meteohub,2013-07-19 12:23:00,
2013-07-19 08:28:00,78.3,76.5,30.11,ESE,123,0.0,3.0,94,0.00,,,0.14,meteohub,2013-07-19 12:28:00,
2013-07-19 08:33:00,78.6,76.5,30.11,ESE,103,0.0,3.0,93,0.00,,,0.14,meteohub,2013-07-19 12:33:00,
2013-07-19 08:38:00,79.5,77.4,30.12,ESE,115,0.0,3.0,93,0.00,,,0.14,meteohub,2013-07-19 12:38:00,
2013-07-19 08:43:00,80.2,77.0,30.12,SSE,150,0.0,5.0,90,0.00,,,0.14,meteohub,2013-07-19 12:43:00,
2013-07-19 08:48:00,80.8,76.8,30.12,SSE,147,0.0,5.0,88,0.00,,,0.14,meteohub,2013-07-19 12:48:00,
2013-07-19 08:53:00,81.1,77.2,30.12,ENE,67,0.0,5.0,88,0.00,,,0.14,meteohub,2013-07-19 12:53:00,
2013-07-19 08:58:00,81.3,77.0,30.12,SSE,151,0.0,5.0,87,0.00,,,0.14,meteohub,2013-07-19 12:58:00,
2013-07-19 09:03:00,81.7,77.0,30.12,SE,128,3.0,4.0,86,0.00,,,0.14,meteohub,2013-07-19 13:03:00,
2013-07-19 09:08:00,81.9,77.2,30.11,SSE,158,2.0,5.0,86,0.00,,,0.14,meteohub,2013-07-19 13:08:00,
2013-07-19 09:13:00,82.0,77.7,30.11,ESE,121,0.0,6.0,87,0.00,,,0.14,meteohub,2013-07-19 13:13:00,
2013-07-19 09:18:00,82.6,77.5,30.11,NE,46,2.0,6.0,85,0.00,,,0.14,meteohub,2013-07-19 13:18:00,
2013-07-19 09:23:00,82.6,77.5,30.12,SSE,163,2.0,7.0,85,0.00,,,0.14,meteohub,2013-07-19 13:23:00,
2013-07-19 09:26:00,82.6,77.2,30.12,South,174,2.0,7.0,84,0.00,,,0.14,meteohub,2013-07-19 13:26:00,
2013-07-19 09:31:00,83.1,78.1,30.12,SE,140,0.0,7.0,85,0.00,,,0.14,meteohub,2013-07-19 13:31:00,
2013-07-19 09:36:00,83.5,77.7,30.12,SSW,200,3.0,6.0,83,0.00,,,0.14,meteohub,2013-07-19 13:36:00,
2013-07-19 09:41:00,83.3,77.5,30.12,SE,138,0.0,6.0,83,0.00,,,0.14,meteohub,2013-07-19 13:41:00,
2013-07-19 09:46:00,83.3,77.9,30.12,ESE,121,3.0,6.0,84,0.00,,,0.14,meteohub,2013-07-19 13:46:00,
2013-07-19 09:51:00,83.8,78.1,30.12,NW,311,0.0,4.0,83,0.00,,,0.14,meteohub,2013-07-19 13:51:00,
2013-07-19 09:56:00,84.6,78.4,30.12,ENE,64,2.0,4.0,82,0.00,,,0.14,meteohub,2013-07-19 13:56:00,
2013-07-19 10:01:00,85.3,78.8,30.12,SE,138,1.0,4.0,81,0.00,,,0.14,meteohub,2013-07-19 14:01:00,
2013-07-19 10:06:00,85.5,78.3,30.12,SSE,151,3.0,5.0,79,0.00,,,0.14,meteohub,2013-07-19 14:06:00,
2013-07-19 10:11:00,85.5,79.0,30.12,ESE,105,0.0,5.0,81,0.00,,,0.14,meteohub,2013-07-19 14:11:00,
2013-07-19 10:16:00,85.5,78.3,30.12,ESE,104,0.0,5.0,79,0.00,,,0.14,meteohub,2013-07-19 14:16:00,
2013-07-19 10:21:00,85.5,79.0,30.12,South,171,0.0,5.0,81,0.00,,,0.14,meteohub,2013-07-19 14:21:00,
2013-07-19 10:26:00,85.6,78.4,30.13,SE,140,4.0,5.0,79,0.00,,,0.14,meteohub,2013-07-19 14:26:00,
2013-07-19 10:31:00,85.5,78.3,30.13,East,81,0.0,5.0,79,0.00,,,0.14,meteohub,2013-07-19 14:31:00,
2013-07-19 10:36:00,85.5,77.7,30.13,East,80,2.0,5.0,78,0.00,,,0.14,meteohub,2013-07-19 14:36:00,
2013-07-19 10:41:00,85.3,77.7,30.13,ESE,121,1.0,6.0,78,0.00,,,0.14,meteohub,2013-07-19 14:41:00,
2013-07-19 10:46:00,85.1,77.9,30.13,East,83,1.0,8.0,79,0.00,,,0.14,meteohub,2013-07-19 14:46:00,
2013-07-19 10:51:00,84.7,77.5,30.13,ESE,115,2.0,8.0,79,0.00,,,0.14,meteohub,2013-07-19 14:51:00,
2013-07-19 10:56:00,84.6,77.7,30.13,East,94,1.0,8.0,80,0.00,,,0.14,meteohub,2013-07-19 14:56:00,
2013-07-19 11:01:00,84.6,77.4,30.13,SE,134,2.0,8.0,79,0.00,,,0.14,meteohub,2013-07-19 15:01:00,
2013-07-19 11:06:00,84.2,77.0,30.13,ESE,115,1.0,9.0,79,0.00,,,0.14,meteohub,2013-07-19 15:06:00,
2013-07-19 11:11:00,84.4,77.9,30.13,ESE,119,0.0,9.0,81,0.00,,,0.14,meteohub,2013-07-19 15:11:00,
2013-07-19 11:16:00,84.6,78.1,30.13,NE,42,0.0,9.0,81,0.00,,,0.14,meteohub,2013-07-19 15:16:00,
2013-07-19 11:21:00,84.6,78.1,30.13,SE,125,0.0,5.0,81,0.00,,,0.14,meteohub,2013-07-19 15:21:00,
2013-07-19 11:26:00,84.6,78.1,30.13,NNW,333,2.0,4.0,81,0.00,,,0.14,meteohub,2013-07-19 15:26:00,
2013-07-19 11:31:00,84.4,76.8,30.14,SE,136,1.0,8.0,78,0.00,,,0.14,meteohub,2013-07-19 15:31:00,
2013-07-19 11:36:00,84.0,77.2,30.13,SSE,157,2.0,8.0,80,0.00,,,0.14,meteohub,2013-07-19 15:36:00,
2013-07-19 11:41:00,84.0,77.5,30.14,ENE,76,4.0,8.0,81,0.00,,,0.14,meteohub,2013-07-19 15:41:00,
2013-07-19 11:46:00,84.0,77.5,30.13,ESE,120,4.0,7.0,81,0.00,,,0.14,meteohub,2013-07-19 15:46:00,
2013-07-19 11:51:00,83.8,77.4,30.13,South,169,4.0,7.0,81,0.00,,,0.14,meteohub,2013-07-19 15:51:00,
2013-07-19 11:56:00,83.7,77.2,30.13,SE,144,7.0,8.0,81,0.00,,,0.14,meteohub,2013-07-19 15:56:00,
2013-07-19 12:01:00,83.7,77.2,30.13,ESE,119,3.0,11.0,81,0.00,,,0.14,meteohub,2013-07-19 16:01:00,
2013-07-19 12:06:00,83.8,77.4,30.12,SSE,152,1.0,11.0,81,0.00,,,0.14,meteohub,2013-07-19 16:06:00,
2013-07-19 12:11:00,83.8,77.0,30.12,SE,132,1.0,11.0,80,0.00,,,0.14,meteohub,2013-07-19 16:11:00,
2013-07-19 12:16:00,83.8,77.0,30.12,East,101,1.0,9.0,80,0.00,,,0.14,meteohub,2013-07-19 16:16:00,
2013-07-19 12:21:00,83.8,76.6,30.12,SSW,193,3.0,8.0,79,0.00,,,0.14,meteohub,2013-07-19 16:21:00,
2013-07-19 12:26:00,83.8,76.6,30.12,SSE,157,0.0,9.0,79,0.00,,,0.14,meteohub,2013-07-19 16:26:00,
2013-07-19 12:31:00,84.2,77.0,30.12,SSE,161,4.0,9.0,79,0.00,,,0.14,meteohub,2013-07-19 16:31:00,
2013-07-19 12:36:00,84.4,76.8,30.12,ESE,104,3.0,9.0,78,0.00,,,0.14,meteohub,2013-07-19 16:36:00,
2013-07-19 12:41:00,84.6,77.4,30.12,ESE,122,2.0,9.0,79,0.00,,,0.14,meteohub,2013-07-19 16:41:00,
2013-07-19 12:46:00,84.7,77.5,30.12,SSE,162,6.0,9.0,79,0.00,,,0.14,meteohub,2013-07-19 16:46:00,
2013-07-19 12:52:00,84.4,77.2,30.12,South,181,3.0,7.0,79,0.00,,,0.14,meteohub,2013-07-19 16:52:00,
2013-07-19 12:57:00,84.4,77.2,30.12,South,181,0.0,9.0,79,0.00,,,0.14,meteohub,2013-07-19 16:57:00,
2013-07-19 13:02:00,84.7,77.5,30.12,ESE,107,1.0,9.0,79,0.00,,,0.14,meteohub,2013-07-19 17:02:00,
2013-07-19 13:07:00,85.3,78.4,30.12,SSE,151,7.0,9.0,80,0.00,,,0.14,meteohub,2013-07-19 17:07:00,
2013-07-19 13:12:00,85.5,78.3,30.11,ESE,119,2.0,9.0,79,0.00,,,0.14,meteohub,2013-07-19 17:12:00,
2013-07-19 13:17:00,85.5,77.0,30.11,SSE,159,3.0,11.0,76,0.00,,,0.14,meteohub,2013-07-19 17:17:00,
2013-07-19 13:22:00,85.6,77.9,30.11,SE,133,3.0,11.0,78,0.00,,,0.14,meteohub,2013-07-19 17:22:00,
2013-07-19 13:27:00,85.8,77.7,30.11,SSW,204,4.0,11.0,77,0.00,,,0.14,meteohub,2013-07-19 17:27:00,
2013-07-19 13:32:00,85.6,77.2,30.11,SE,133,1.0,8.0,76,0.00,,,0.14,meteohub,2013-07-19 17:32:00,
2013-07-19 13:37:00,85.8,77.7,30.11,ESE,103,0.0,8.0,77,0.00,,,0.14,meteohub,2013-07-19 17:37:00,
2013-07-19 13:42:00,86.2,77.7,30.10,SE,144,5.0,8.0,76,0.00,,,0.14,meteohub,2013-07-19 17:42:00,
2013-07-19 13:47:00,86.4,77.9,30.10,SSE,153,1.0,8.0,76,0.00,,,0.14,meteohub,2013-07-19 17:47:00,
2013-07-19 13:52:00,86.2,77.7,30.10,NE,45,0.0,12.0,76,0.00,,,0.14,meteohub,2013-07-19 17:52:00,
2013-07-19 13:57:00,86.2,77.4,30.10,ESE,114,2.0,12.0,75,0.00,,,0.14,meteohub,2013-07-19 17:57:00,
2013-07-19 14:02:00,86.2,77.0,30.10,ESE,107,3.0,12.0,74,0.00,,,0.14,meteohub,2013-07-19 18:02:00,
2013-07-19 14:07:00,86.0,76.8,30.10,SE,136,3.0,9.0,74,0.00,,,0.14,meteohub,2013-07-19 18:07:00,
2013-07-19 14:12:00,85.6,77.5,30.10,SSE,163,1.0,12.0,77,0.00,,,0.14,meteohub,2013-07-19 18:12:00,
2013-07-19 14:17:00,86.0,77.5,30.10,South,180,4.0,12.0,76,0.00,,,0.14,meteohub,2013-07-19 18:17:00,
2013-07-19 14:22:00,85.8,77.4,30.10,SE,138,2.0,12.0,76,0.00,,,0.14,meteohub,2013-07-19 18:22:00,
2013-07-19 14:27:00,85.6,77.2,30.09,East,99,1.0,9.0,76,0.00,,,0.14,meteohub,2013-07-19 18:27:00,
2013-07-19 14:32:00,85.6,77.2,30.09,SW,223,0.0,9.0,76,0.00,,,0.14,meteohub,2013-07-19 18:32:00,
2013-07-19 14:37:00,86.0,77.9,30.09,South,176,3.0,8.0,77,0.00,,,0.14,meteohub,2013-07-19 18:37:00,
2013-07-19 14:42:00,86.4,77.5,30.09,ENE,78,0.0,8.0,75,0.00,,,0.14,meteohub,2013-07-19 18:42:00,
2013-07-19 14:47:00,87.1,78.3,30.09,SE,132,2.0,7.0,75,0.00,,,0.14,meteohub,2013-07-19 18:47:00,
2013-07-19 14:52:00,86.9,78.1,30.09,SSE,150,0.0,7.0,75,0.00,,,0.14,meteohub,2013-07-19 18:52:00,
2013-07-19 14:57:00,87.3,78.8,30.09,ESE,109,4.0,7.0,76,0.00,,,0.14,meteohub,2013-07-19 18:57:00,
2013-07-19 15:02:00,87.4,78.1,30.09,SW,214,4.0,10.0,74,0.00,,,0.14,meteohub,2013-07-19 19:02:00,
2013-07-19 15:07:00,87.3,77.9,30.08,SE,138,0.0,10.0,74,0.00,,,0.14,meteohub,2013-07-19 19:07:00,
2013-07-19 15:12:00,86.7,77.9,30.08,SE,133,3.0,11.0,75,0.00,,,0.14,meteohub,2013-07-19 19:12:00,
2013-07-19 15:17:00,86.5,78.1,30.08,South,183,2.0,11.0,76,0.00,,,0.14,meteohub,2013-07-19 19:17:00,
2013-07-19 15:22:00,86.0,77.9,30.08,SSE,150,0.0,11.0,77,0.00,,,0.14,meteohub,2013-07-19 19:22:00,
2013-07-19 15:27:00,86.5,78.1,30.08,ESE,107,0.0,11.0,76,0.00,,,0.14,meteohub,2013-07-19 19:27:00,
2013-07-19 15:32:00,87.3,78.4,30.08,NE,44,1.0,11.0,75,0.00,,,0.14,meteohub,2013-07-19 19:32:00,
2013-07-19 15:37:00,88.0,79.0,30.08,NNW,333,0.0,9.0,75,0.00,,,0.14,meteohub,2013-07-19 19:37:00,
2013-07-19 15:42:00,88.3,78.1,30.08,ESE,111,5.0,8.0,72,0.00,,,0.14,meteohub,2013-07-19 19:42:00,
2013-07-19 15:47:00,87.8,78.1,30.08,SE,134,1.0,10.0,73,0.00,,,0.14,meteohub,2013-07-19 19:47:00,
2013-07-19 15:52:00,87.6,78.3,30.08,South,189,5.0,10.0,74,0.00,,,0.14,meteohub,2013-07-19 19:52:00,
2013-07-19 15:57:00,87.6,77.9,30.07,SSE,149,2.0,10.0,73,0.00,,,0.14,meteohub,2013-07-19 19:57:00,
2013-07-19 16:02:00,87.4,78.1,30.07,South,174,4.0,9.0,74,0.00,,,0.14,meteohub,2013-07-19 20:02:00,
2013-07-19 16:07:00,87.3,77.9,30.07,ESE,115,0.0,9.0,74,0.00,,,0.14,meteohub,2013-07-19 20:07:00,
2013-07-19 16:12:00,87.3,77.9,30.07,South,173,6.0,9.0,74,0.00,,,0.14,meteohub,2013-07-19 20:12:00,
2013-07-19 16:17:00,86.9,77.5,30.07,SSE,155,2.0,9.0,74,0.00,,,0.14,meteohub,2013-07-19 20:17:00,
2013-07-19 16:22:00,86.9,77.5,30.07,SE,143,7.0,9.0,74,0.00,,,0.14,meteohub,2013-07-19 20:22:00,
2013-07-19 16:27:00,86.5,78.1,30.07,ENE,63,0.0,9.0,76,0.00,,,0.14,meteohub,2013-07-19 20:27:00,
2013-07-19 16:32:00,86.2,78.1,30.07,East,92,5.0,8.0,77,0.00,,,0.14,meteohub,2013-07-19 20:32:00,
2013-07-19 16:37:00,85.6,77.9,30.07,SSE,166,1.0,8.0,78,0.00,,,0.14,meteohub,2013-07-19 20:37:00,
2013-07-19 16:42:00,85.5,77.4,30.07,SSE,158,6.0,9.0,77,0.00,,,0.14,meteohub,2013-07-19 20:42:00,
2013-07-19 16:47:00,85.1,77.0,30.07,ESE,108,3.0,9.0,77,0.00,,,0.14,meteohub,2013-07-19 20:47:00,
2013-07-19 16:52:00,84.9,77.4,30.07,ESE,117,4.0,11.0,78,0.00,,,0.14,meteohub,2013-07-19 20:52:00,
2013-07-19 16:57:00,84.6,77.4,30.07,South,187,8.0,11.0,79,0.00,,,0.14,meteohub,2013-07-19 20:57:00,
2013-07-19 17:02:00,84.6,77.7,30.07,ESE,115,0.0,11.0,80,0.00,,,0.14,meteohub,2013-07-19 21:02:00,
2013-07-19 17:07:00,84.6,77.4,30.07,SSW,200,1.0,10.0,79,0.00,,,0.14,meteohub,2013-07-19 21:07:00,
2013-07-19 17:12:00,84.4,77.2,30.07,NE,39,1.0,9.0,79,0.00,,,0.14,meteohub,2013-07-19 21:12:00,
2013-07-19 17:17:00,84.4,77.5,30.07,SE,127,0.0,9.0,80,0.00,,,0.14,meteohub,2013-07-19 21:17:00,
2013-07-19 17:22:00,84.4,77.5,30.07,SE,135,1.0,9.0,80,0.00,,,0.14,meteohub,2013-07-19 21:22:00,
2013-07-19 17:27:00,84.4,77.5,30.07,SSE,157,6.0,8.0,80,0.00,,,0.14,meteohub,2013-07-19 21:27:00,
2013-07-19 17:32:00,84.0,77.2,30.06,SSE,161,1.0,8.0,80,0.00,,,0.14,meteohub,2013-07-19 21:32:00,
2013-07-19 17:37:00,84.0,76.8,30.06,SSE,150,0.0,8.0,79,0.00,,,0.14,meteohub,2013-07-19 21:37:00,
2013-07-19 17:42:00,84.0,77.2,30.06,South,178,6.0,6.0,80,0.00,,,0.14,meteohub,2013-07-19 21:42:00,
2013-07-19 17:47:00,83.8,77.0,30.06,SE,145,1.0,6.0,80,0.00,,,0.14,meteohub,2013-07-19 21:47:00,
2013-07-19 17:52:00,83.8,77.0,30.06,SE,134,1.0,6.0,80,0.00,,,0.14,meteohub,2013-07-19 21:52:00,
2013-07-19 17:57:00,83.8,77.0,30.06,SSE,163,4.0,8.0,80,0.00,,,0.14,meteohub,2013-07-19 21:57:00,
2013-07-19 18:02:00,83.8,77.4,30.06,East,96,0.0,8.0,81,0.00,,,0.14,meteohub,2013-07-19 22:02:00,
2013-07-19 18:07:00,83.7,77.2,30.05,ESE,123,1.0,8.0,81,0.00,,,0.14,meteohub,2013-07-19 22:07:00,
2013-07-19 18:12:00,83.7,77.2,30.05,SSE,162,4.0,7.0,81,0.00,,,0.14,meteohub,2013-07-19 22:12:00,
2013-07-19 18:17:00,83.5,77.0,30.05,SE,140,2.0,9.0,81,0.00,,,0.14,meteohub,2013-07-19 22:17:00,
2013-07-19 18:22:00,83.3,76.8,30.05,SE,129,3.0,9.0,81,0.00,,,0.14,meteohub,2013-07-19 22:22:00,
2013-07-19 18:27:00,83.1,77.0,30.05,South,178,0.0,9.0,82,0.00,,,0.14,meteohub,2013-07-19 22:27:00,
2013-07-19 18:32:00,83.1,77.0,30.05,SE,142,0.0,9.0,82,0.00,,,0.14,meteohub,2013-07-19 22:32:00,
2013-07-19 18:37:00,83.1,77.0,30.05,SSE,157,2.0,7.0,82,0.00,,,0.14,meteohub,2013-07-19 22:37:00,
2013-07-19 18:43:00,83.1,77.0,30.05,South,187,0.0,7.0,82,0.00,,,0.14,meteohub,2013-07-19 22:43:00,
2013-07-19 18:48:00,83.1,77.0,30.06,ESE,122,4.0,7.0,82,0.00,,,0.14,meteohub,2013-07-19 22:48:00,
2013-07-19 18:53:00,82.9,76.8,30.06,SSE,152,0.0,7.0,82,0.00,,,0.14,meteohub,2013-07-19 22:53:00,
2013-07-19 18:58:00,82.9,77.2,30.06,ENE,72,1.0,7.0,83,0.00,,,0.14,meteohub,2013-07-19 22:58:00,
2013-07-19 19:03:00,82.9,76.8,30.06,SE,139,1.0,7.0,82,0.00,,,0.14,meteohub,2013-07-19 23:03:00,
2013-07-19 19:08:00,82.9,77.2,30.06,ESE,119,0.0,6.0,83,0.00,,,0.14,meteohub,2013-07-19 23:08:00,
2013-07-19 19:13:00,82.9,77.2,30.06,ESE,119,2.0,6.0,83,0.00,,,0.14,meteohub,2013-07-19 23:13:00,
2013-07-19 19:18:00,82.8,77.0,30.06,ESE,121,0.0,6.0,83,0.00,,,0.14,meteohub,2013-07-19 23:18:00,
2013-07-19 19:23:00,82.8,77.0,30.06,ESE,117,1.0,6.0,83,0.00,,,0.14,meteohub,2013-07-19 23:23:00,
2013-07-19 19:28:00,82.6,76.8,30.06,ESE,105,0.0,5.0,83,0.00,,,0.14,meteohub,2013-07-19 23:28:00,
2013-07-19 19:33:00,82.6,77.2,30.06,SSE,151,1.0,6.0,84,0.00,,,0.14,meteohub,2013-07-19 23:33:00,
2013-07-19 19:38:00,82.4,77.0,30.06,SE,141,4.0,6.0,84,0.00,,,0.14,meteohub,2013-07-19 23:38:00,
2013-07-19 19:43:00,82.2,76.8,30.07,ESE,113,0.0,6.0,84,0.00,,,0.14,meteohub,2013-07-19 23:43:00,
2013-07-19 19:48:00,82.0,76.6,30.08,SE,141,0.0,6.0,84,0.00,,,0.14,meteohub,2013-07-19 23:48:00,
2013-07-19 19:53:00,82.0,76.6,30.07,SE,140,0.0,6.0,84,0.00,,,0.14,meteohub,2013-07-19 23:53:00,
2013-07-19 19:58:00,82.0,76.6,30.07,SE,142,0.0,6.0,84,0.00,,,0.14,meteohub,2013-07-19 23:58:00,
2013-07-19 20:03:00,82.0,77.0,30.07,ESE,105,0.0,5.0,85,0.00,,,0.14,meteohub,2013-07-20 00:03:00,
2013-07-19 20:08:00,81.9,76.8,30.07,SE,125,2.0,4.0,85,0.00,,,0.00,meteohub,2013-07-20 00:08:00,
2013-07-19 20:13:00,81.9,76.8,30.07,ESE,103,2.0,5.0,85,0.00,,,0.00,meteohub,2013-07-20 00:13:00,
2013-07-19 20:18:00,81.7,76.6,30.07,SE,125,0.0,5.0,85,0.00,,,0.00,meteohub,2013-07-20 00:18:00,
2013-07-19 20:23:00,81.7,76.6,30.07,ESE,103,0.0,5.0,85,0.00,,,0.00,meteohub,2013-07-20 00:23:00,
2013-07-19 20:28:00,81.7,77.0,30.07,SSE,157,0.0,5.0,86,0.00,,,0.00,meteohub,2013-07-20 00:28:00,
2013-07-19 20:33:00,81.5,76.8,30.07,ESE,113,0.0,3.0,86,0.00,,,0.00,meteohub,2013-07-20 00:33:00,
2013-07-19 20:38:00,81.5,76.8,30.08,East,80,0.0,4.0,86,0.00,,,0.00,meteohub,2013-07-20 00:38:00,
2013-07-19 20:43:00,81.3,76.6,30.08,ESE,109,0.0,4.0,86,0.00,,,0.00,meteohub,2013-07-20 00:43:00,
2013-07-19 20:48:00,81.3,76.6,30.08,SE,142,3.0,4.0,86,0.00,,,0.00,meteohub,2013-07-20 00:48:00,
2013-07-19 20:53:00,81.1,76.5,30.08,SSE,165,0.0,4.0,86,0.00,,,0.00,meteohub,2013-07-20 00:53:00,
2013-07-19 20:58:00,81.1,76.8,30.09,SSE,163,0.0,4.0,87,0.00,,,0.00,meteohub,2013-07-20 00:58:00,
2013-07-19 21:03:00,81.1,76.5,30.09,ESE,117,0.0,4.0,86,0.00,,,0.00,meteohub,2013-07-20 01:03:00,
2013-07-19 21:08:00,81.1,76.5,30.09,South,178,0.0,4.0,86,0.00,,,0.00,meteohub,2013-07-20 01:08:00,
2013-07-19 21:13:00,81.1,76.5,30.09,SE,142,2.0,4.0,86,0.00,,,0.00,meteohub,2013-07-20 01:13:00,
2013-07-19 21:18:00,81.1,76.5,30.10,SE,132,1.0,4.0,86,0.00,,,0.00,meteohub,2013-07-20 01:18:00,
2013-07-19 21:23:00,81.1,76.8,30.10,West,263,2.0,4.0,87,0.00,,,0.00,meteohub,2013-07-20 01:23:00,
2013-07-19 21:28:00,81.3,77.0,30.10,SSE,155,0.0,5.0,87,0.00,,,0.00,meteohub,2013-07-20 01:28:00,
2013-07-19 21:33:00,81.3,77.0,30.10,SE,130,0.0,5.0,87,0.00,,,0.00,meteohub,2013-07-20 01:33:00,
2013-07-19 21:38:00,81.3,77.0,30.10,SSE,150,1.0,5.0,87,0.00,,,0.00,meteohub,2013-07-20 01:38:00,
2013-07-19 21:43:00,81.3,77.0,30.10,SSE,152,6.0,6.0,87,0.00,,,0.00,meteohub,2013-07-20 01:43:00,
2013-07-19 21:48:00,81.3,76.6,30.10,East,91,0.0,6.0,86,0.00,,,0.00,meteohub,2013-07-20 01:48:00,
2013-07-19 21:53:00,81.3,76.6,30.11,SE,132,0.0,6.0,86,0.00,,,0.00,meteohub,2013-07-20 01:53:00,
2013-07-19 21:58:00,81.3,76.6,30.11,SE,136,1.0,6.0,86,0.00,,,0.00,meteohub,2013-07-20 01:58:00,
2013-07-19 22:03:00,81.5,76.8,30.11,ESE,110,1.0,6.0,86,0.00,,,0.00,meteohub,2013-07-20 02:03:00,
2013-07-19 22:08:00,81.5,76.8,30.12,SE,128,3.0,5.0,86,0.00,,,0.00,meteohub,2013-07-20 02:08:00,
2013-07-19 22:13:00,81.5,76.8,30.12,SSE,149,1.0,6.0,86,0.00,,,0.00,meteohub,2013-07-20 02:13:00,
2013-07-19 22:18:00,81.5,76.8,30.12,SE,145,3.0,6.0,86,0.00,,,0.00,meteohub,2013-07-20 02:18:00,
2013-07-19 22:24:00,81.3,76.6,30.12,SSE,155,1.0,6.0,86,0.00,,,0.00,meteohub,2013-07-20 02:24:00,
2013-07-19 22:29:00,81.3,76.6,30.12,SE,144,0.0,5.0,86,0.00,,,0.00,meteohub,2013-07-20 02:29:00,
2013-07-19 22:34:00,81.3,76.6,30.12,South,175,0.0,5.0,86,0.00,,,0.00,meteohub,2013-07-20 02:34:00,
2013-07-19 22:39:00,81.3,76.6,30.12,ESE,109,0.0,5.0,86,0.00,,,0.00,meteohub,2013-07-20 02:39:00,
2013-07-19 22:44:00,81.5,77.2,30.12,SE,134,0.0,6.0,87,0.00,,,0.00,meteohub,2013-07-20 02:44:00,
2013-07-19 22:49:00,81.3,77.0,30.12,ESE,107,0.0,6.0,87,0.00,,,0.00,meteohub,2013-07-20 02:49:00,
2013-07-19 22:54:00,81.3,77.0,30.12,SE,139,6.0,6.0,87,0.00,,,0.00,meteohub,2013-07-20 02:54:00,
2013-07-19 22:59:00,81.3,77.0,30.13,SSW,212,2.0,6.0,87,0.00,,,0.00,meteohub,2013-07-20 02:59:00,
2013-07-19 23:04:00,81.3,77.0,30.13,ESE,111,0.0,6.0,87,0.00,,,0.00,meteohub,2013-07-20 03:04:00,
2013-07-19 23:09:00,81.3,77.0,30.13,ESE,115,0.0,6.0,87,0.00,,,0.00,meteohub,2013-07-20 03:09:00,
2013-07-19 23:14:00,81.3,77.0,30.13,SE,140,0.0,4.0,87,0.00,,,0.00,meteohub,2013-07-20 03:14:00,
2013-07-19 23:19:00,81.3,77.0,30.13,ESE,120,0.0,4.0,87,0.00,,,0.00,meteohub,2013-07-20 03:19:00,
2013-07-19 23:24:00,81.3,77.0,30.13,SSE,165,0.0,2.0,87,0.00,,,0.00,meteohub,2013-07-20 03:24:00,
2013-07-19 23:29:00,81.3,77.0,30.13,ESE,123,0.0,4.0,87,0.00,,,0.00,meteohub,2013-07-20 03:29:00,
2013-07-19 23:34:00,81.3,77.0,30.13,East,96,3.0,5.0,87,0.00,,,0.00,meteohub,2013-07-20 03:34:00,
2013-07-19 23:39:00,81.3,77.0,30.13,ESE,123,0.0,6.0,87,0.00,,,0.00,meteohub,2013-07-20 03:39:00,
2013-07-19 23:44:00,81.3,77.0,30.13,SSE,153,3.0,6.0,87,0.00,,,0.00,meteohub,2013-07-20 03:44:00,
2013-07-19 23:50:00,81.3,77.0,30.13,SE,136,1.0,6.0,87,0.00,,,0.00,meteohub,2013-07-20 03:50:00,
2013-07-19 23:55:00,81.3,77.0,30.12,SE,144,0.0,5.0,87,0.00,,,0.00,meteohub,2013-07-20 03:55:00,